STARLINK-34676, 64853

Orbit data source: Space-Track

STARLINK-34676, 64853 is a payload satellite owned by SpaceX/Seattle (US) in SSO that was launched on Sat, 19 Jul 2025 UTC via an FALCON 9 launch vehicle from the Air Force Western Test Range (AFWTR). Payload-class satellites include a variety of spacecraft equipped with specific instruments for various scientific and technological missions. These include communications satellites like Starlink; space stations such as the ISS; scientific satellites like the Hubble; Earth observation satellites from companies like Planet Labs, Umbra, and HawkEye 360; GPS; miniature CubeSats for education and research; and military/defense satellites.

Loading next visibility...
Identifier
64853, 2025-152M
Orbit
SSO
Country
Flag of USUS
Related business
Manufacturer
SpaceX/Seattle
Mission
Operational Commercial Communications
Bus & Motor
STARLINK V2MO, Unknown motor
Mass
575 kg wet, ~530 kg dry
Launch date (UTC)
2025-07-19 (11 months ago)
Launch vehicle
FALCON 9
Launch site
Air Force Western Test Range (AFWTR)
Object type
Payload
Rocket body
Debris
Shape & HBR
Box + 2 Pan, 17.7 m
Radar Cross Section
36.964 m², Large (>1 m²)

Expand to show TLE details & history
Last TLE update: 1 day ago

TLE from 1 day ago
0 STARLINK-34676
1 64853U 25152M   26170.56493772  .00005652  00000-0  39522-3 0  9992
2 64853  97.3406  24.8026 0002985  73.7355 286.4201 15.05661037 50746
Epoch: 2026-06-19T13:33Z
TLE epoch observation values (Epoch: 2026-06-19T13:33:30.619Z)
Latitude
0.00004°
Longitude
-86.36708°
Altitude
551.966 km
Speed
7.586 km/s
True Right ascension
01h 39m 12s
True Declination
0° 00' 00"
Sunlit
Object was in daylight at epoch
Visualization orbit readout
Latitude
Unknown
Longitude
Unknown
Altitude
Unknown
Speed
Unknown
Apparent Right ascension
Unknown
Apparent Declination
Unknown
Sunlit
N/A
Visualization observer readout
Local Sidereal Time
07:20:16
Azimuth
Unknown
Elevation
Unknown
Doppler factor
Unknown
Orbital elements
Apogee altitude
548.527 km
Perigee altitude
544.393 km
Semi-major axis
6,924.597 km
Eccentricity
0.0003
Inclination
97.3406°
RAAN
24.8026°
Arg. of periapsis
73.7355°
True anomaly
286.38729°
Mean anomaly
286.4201°
Eccentric anomaly
286.40369°
Mean motion
3.76662 °/min
Orbital period
95.58 mins
BSTAR
0.00039522
Loading maneuver chart data...
Computing Atmospheric mass density...
Loading historical data...
Loading historical data...
Loading historical data...
Loading historical data...
Loading historical data...
Loading historical data...
Loading historical data...

Documentation

Showing up to 5 results
|